Weather History for KVCT - August, 2014

Change the Weather History Date:

Wednesday, August 13, 2014

  Actual Average Record
Temperature  
Mean Temperature 90 °F 85 °F  
Max Temperature 103 °F 96 °F 107 °F (1962)
Min Temperature 76 °F 74 °F 62 °F (2004)
Degree Days  
Heating Degree Days 0 0  
Month to date heating degree days 0 0  
Since 1 June heating degree days 0 0  
Since 1 July heating degree days 0 0  
Cooling Degree Days 25 20  
Month to date cooling degree days 297 260  
Year to date cooling degree days 2144 2013  
Since 1 June cooling degree days 1494 1354  
Growing Degree Days 38 (Base 50)    
Moisture  
Dew Point 66 °F    
Average Humidity 56    
Maximum Humidity 94    
Minimum Humidity 18    
Precipitation  
Precipitation 0.00 in 0.07 in 1.72 in (1955)
Month to date precipitation 0.40 1.02  
Year to date precipitation 18.16 25.04  
Snow  
Snow 0.00 in - - ()
Month to date snowfall 0.0  
Since 1 June snowfall 0.0  
Since 1 July snowfall 0.0  
Snow Depth 0.00 in    
Sea Level Pressure  
Sea Level Pressure 29.98 in    
Wind  
Wind Speed 6 mph (NNE)    
Max Wind Speed 15 mph    
Max Gust Speed 19 mph    
Visibility 10 miles    
Events      
T = Trace of Precipitation, MM = Missing Value Source: NWS Daily Summary

Daily Weather History Graph

Daily Weather History Graph

Search for Another Location

Airport or City:

Trip Planner

Search our weather history database for the weather conditions in past years. The results will help you decide how hot, cold, wet, or windy it might be!

Date:

Astronomy

Aug. 13, 2014 Rise Set
Actual Time 6:55 AM CDT 8:09 PM CDT
Civil Twilight 6:30 AM CDT 8:33 PM CDT
Nautical Twilight 6:01 AM CDT 9:03 PM CDT
Astronomical Twilight 5:30 AM CDT 9:34 PM CDT
Moon 10:18 PM CDT (8/13) 10:04 AM CDT (8/13)
Length of Visible Light 14h 03m
Length of Day
13h 13m
Waning Gibbous, 87% of the Moon is Illuminated
Aug 13
Waning Gibbous
Aug 17
Last Quarter
Aug 25
New
Sep 2
First Quarter
Sep 8
Full

Hourly Weather History & Observations

Time (CDT) Temp. Heat Index Dew Point Humidity Pressure Visibility Wind Dir Wind Speed Gust Speed Precip Events Conditions
12:51 AM 79.0 °F - 75.9 °F 90% 30.01 in 10.0 mi WNW 4.6 mph - N/A   Clear
1:51 AM 80.1 °F 85.4 °F 75.9 °F 87% 30.00 in 10.0 mi WSW 5.8 mph - N/A   Partly Cloudy
2:51 AM 80.1 °F 85.4 °F 75.9 °F 87% 29.99 in 10.0 mi SW 5.8 mph - N/A   Mostly Cloudy
3:51 AM 78.8 °F - 75.2 °F 89% 29.99 in 10.0 mi South 4.6 mph - N/A   Clear
4:51 AM 78.1 °F - 75.0 °F 90% 29.98 in 10.0 mi SSW 4.6 mph - N/A   Clear
5:51 AM 77.0 °F - 73.9 °F 90% 29.99 in 10.0 mi West 3.5 mph - N/A   Clear
6:51 AM 75.9 °F - 73.9 °F 94% 30.00 in 9.0 mi NW 5.8 mph - N/A   Clear
9:51 AM 86.0 °F 90.4 °F 69.8 °F 58% 30.04 in 10.0 mi Variable 3.5 mph - N/A   Clear
10:51 AM 91.0 °F 96.6 °F 70.0 °F 50% 30.04 in 10.0 mi North 3.5 mph - N/A   Partly Cloudy
11:51 AM 95.0 °F 99.0 °F 66.9 °F 40% 30.03 in 10.0 mi North 10.4 mph - N/A   Partly Cloudy
12:51 PM 97.0 °F 99.9 °F 64.9 °F 35% 30.02 in 10.0 mi NE 5.8 mph - N/A   Clear
1:51 PM 100.0 °F 100.2 °F 59.0 °F 26% 29.99 in 10.0 mi NNW 10.4 mph 17.3 mph N/A   Clear
2:51 PM 100.0 °F 99.2 °F 57.0 °F 24% 29.97 in 10.0 mi East 5.8 mph - N/A   Clear
3:51 PM 102.2 °F - 50.0 °F 17% 29.95 in 10.0 mi NE 8.1 mph - N/A   Clear
4:51 PM 102.9 °F - 50.0 °F 17% 29.92 in 10.0 mi NNE 8.1 mph - N/A   Clear
5:51 PM 100.9 °F 99.6 °F 55.0 °F 22% 29.92 in 10.0 mi NNE 9.2 mph - N/A   Clear
6:51 PM 98.1 °F 96.8 °F 57.0 °F 25% 29.92 in 10.0 mi NE 9.2 mph - N/A   Clear
7:51 PM 89.1 °F 89.0 °F 61.0 °F 39% 29.92 in 10.0 mi NE 8.1 mph - N/A   Clear
8:51 PM 84.0 °F 84.4 °F 61.0 °F 46% 29.94 in 10.0 mi NNE 6.9 mph - N/A   Clear
9:51 PM 82.9 °F 83.2 °F 60.1 °F 46% 29.97 in 10.0 mi SE 3.5 mph - N/A   Clear
11:51 PM 82.0 °F 87.9 °F 73.9 °F 76% 30.00 in 10.0 mi SSE 8.1 mph - N/A   Clear